Regional Weather Roundup
Issued by NWS

Home | Current Version | Previous Version | Text Only | Print | Product List | Glossary On
Versions: 1 2 3 4 5 6 7 8 9 10 11 12 13 14 15 16 17 18 19 20 21 22 23 24 25 26 27 28 29 30 31 32 33 34 35 36 37 38 39 40 41 42 43 44 45 46 47 48 49 50
772
ASUS44 KJAN 221010
RWRMS

MISSISSIPPI HOURLY WEATHER ROUNDUP
NATIONAL WEATHER SERVICE JACKSON MS
500 AM CDT TUE APR 22 2014

NOTE: "FAIR: INDICATES FEW OR NO CLOUDS BELOW 12,000 FEET WITH NO
SIGNIFICANT WEATHER AND/OR OBSTRUCTIONS TO VISIBILITY.

MSZ001>002-007>008-010>013-018>021-025>028-034>036-221100-
NORTHWEST MISSISSIPPI

CITY           SKY/WX    TMP DP  RH WIND       PRES   REMARKS
CLARKSDALE       N/A     63  63 100 NW5       29.92S
CLEVELAND      CLOUDY    63  63 100 CALM      29.91S
GREENWOOD      RAIN      63  61  93 NE5       29.91F FOG
GREENVILLE     LGT RAIN  64  62  93 NE5       29.90S
GRENADA        CLOUDY    61  61 100 CALM      29.92S
OLIVE BRANCH   PTCLDY    59  59 100 CALM      29.91S
OXFORD         FAIR      59  59 100 CALM      29.93S FOG
TUNICA         PTSUNNY   61  61 100 S5        29.92F
$$

MSZ003>006-009-014>017-022>024-029>033-037>039-221100-
NORTHEAST MISSISSIPPI

CITY           SKY/WX    TMP DP  RH WIND       PRES   REMARKS
BELMONT        LGT RAIN  62  61  96 CALM      29.92R
COLUMBUS AFB   CLOUDY    63  62  96 SW3       29.92R
CORINTH        CLOUDY    63  59  88 CALM      29.91S FOG
GOLDN TRIANGLE CLOUDY    63  55  77 CALM      29.95S
STARKVILLE     LGT RAIN  61  59  94 CALM      29.93S
TUPELO         CLOUDY    63  60  90 CALM      29.91F
$$

MSZ040-058-221100-
CENTRAL MISSISSIPPI

CITY           SKY/WX    TMP DP  RH WIND       PRES   REMARKS
JACKSON INTL   LGT RAIN  62  60  93 VRB6      29.93F
JACKSON HAWKNS LGT RAIN  63  59  87 S5        29.92F
MERIDIAN KEY   CLEAR     57  56  96 CALM      29.94S
MERIDIAN NAS   CLEAR     61  57  87 W8        29.94S
RAYMOND        LGT RAIN  63  57  82 SW5       29.93S
VICKSBURG      CLOUDY    65  61  87 SW5       29.92S
$$

MSZ059>079-221100-
SOUTH MISSISSIPPI

CITY           SKY/WX    TMP DP  RH WIND       PRES   REMARKS
BROOKHAVEN     FAIR      61  61 100 S5        29.96F FOG
COLUMBIA       FOG       55  55 100 MISG      29.95S VSB 1/4
HATTIESBURG    NOT AVBL
MCCOMB         CLOUDY    60  59  96 CALM      29.96R FOG
NATCHEZ        CLOUDY    64  61  88 SW8       29.94F
PINE BELT      CLEAR     57  54  88 CALM      29.96S
$$

MSZ080>082-221100-
COASTAL MISSISSIPPI

CITY           SKY/WX    TMP DP  RH WIND       PRES   REMARKS
BILOXI         PTCLDY    59  59  98 W2        29.96S
PASCAGOULA     NOT AVBL
GULFPORT       PTCLDY    58  54  86 CALM      29.96S
$$



USA.gov is the U.S. government's official web portal to all federal, state and local government web resources and services.